Tracking 35237 objects as of 4-Sep-2026
HD Live streaming from Space Station
objects crossing your sky now

SLV-3 DEB


SLV-3 DEB is no longer on orbit


NORAD ID: 14225
Int'l Code: 1983-033E
Launch date: April 17, 1983
Source: India (IND)
Launch site: SRIHARIKOTA (SRI)
Decay date: 1989-01-04

Note: This is SATELLITE DEBRIS
Your satellite tracking list
Your tracking list is empty




NASA's NSSDC Master Catalog

Two Line Element Set (TLE):
1 14225U 83033  E 89002.65544457  .03542210 +11900-4 +17445-2 0  9995
2 14225 046.3760 221.6129 0007336 030.2875 331.1439 16.20045519314970
Source of the keplerian elements: AFSPC